EW3608 Weather Reports


Display with metric or nautical units.
time (UTC)temp
F
wind
direction
speed
MPH
gust
MPH
rain 1hr
in
rain 24hr
in
rain mn
in
humidity
%
barometer
mb
20260505121504 34 338 0.0 2.0 0.03 0.39 0.17 92 1014.7
20260505121003 34 327 0.0 4.0 0.03 0.39 0.17 92 1014.6
20260505120504 34 338 1.0 5.0 0.03 0.39 0.17 92 1014.5
20260505120006 34 352 1.0 5.0 0.03 0.39 0.17 92 1014.5
20260505115507 35 303 1.0 4.0 0.03 0.39 0.17 92 1014.4
20260505115003 35 32 2.0 6.0 0.03 0.38 0.16 92 1014.3
20260505114505 35 351 1.0 6.0 0.03 0.38 0.16 91 1014.3
20260505114003 35 325 0.0 5.0 0.03 0.38 0.16 92 1014.3
20260505113502 35 337 1.0 5.0 0.03 0.37 0.15 92 1014.2
20260505113005 36 26 2.0 5.0 0.03 0.37 0.15 92 1014.2
20260505112504 36 5 0.0 8.0 0.04 0.37 0.15 91 1014.1
20260505112001 36 16 4.0 7.0 0.03 0.36 0.14 91 1014.0
20260505111507 36 25 1.0 9.0 0.03 0.36 0.14 92 1014.0
20260505111002 36 330 2.0 9.0 0.03 0.36 0.14 91 1014.0
20260505110503 36 15 3.0 8.0 0.03 0.36 0.14 91 1014.0
20260505102003 40 360 3.0 13.0 0.09 0.33 0.11 90 1013.5
20260505101508 40 287 3.0 9.0 0.10 0.33 0.11 89 1013.5
20260505101004 40 360 4.0 9.0 0.10 0.33 0.11 89 1013.4
20260505100505 41 20 3.0 6.0 0.10 0.33 0.11 90 1013.3
20260505100008 41 343 3.0 8.0 0.10 0.33 0.11 90 1013.2
20260505095502 41 351 2.0 8.0 0.09 0.32 0.10 90 1013.1
20260505095002 41 360 1.0 9.0 0.09 0.32 0.10 90 1013.1
20260505094508 41 341 4.0 9.0 0.08 0.31 0.09 89 1013.1
20260505094003 41 63 2.0 6.0 0.07 0.30 0.08 89 1013.1
20260505093503 41 78 2.0 9.0 0.06 0.29 0.07 89 1012.9
20260505093010 41 288 3.0 8.0 0.05 0.28 0.06 89 1012.9
20260505092503 42 33 3.0 11.0 0.03 0.26 0.04 89 1012.9
20260505090006 42 325 2.0 8.0 0.00 0.23 0.01 89 1012.7
20260505085504 42 252 2.0 8.0 0.00 0.23 0.01 88 1012.6
20260505085005 42 24 2.0 7.0 0.00 0.23 0.01 88 1012.5
20260505084516 42 352 3.0 7.0 0.00 0.23 0.01 88 1012.7
20260505084004 42 261 1.0 3.0 0.00 0.23 0.01 89 1012.7
20260505083503 42 342 1.0 8.0 0.01 0.23 0.01 88 1012.6
20260505083014 42 310 1.0 8.0 0.01 0.23 0.01 88 1012.6
20260505082503 43 338 3.0 10.0 0.01 0.23 0.01 88 1012.4
20260505082004 43 350 5.0 10.0 0.01 0.23 0.01 88 1012.4
20260505081508 43 289 0.0 8.0 0.01 0.23 0.01 88 1012.6
20260505081009 43 9 2.0 8.0 0.01 0.23 0.01 87 1012.6
20260505080506 43 360 3.0 8.0 0.01 0.23 0.01 87 1012.7
20260505080023 43 32 3.0 10.0 0.01 0.23 0.01 87 1012.5
20260505075503 43 311 3.0 11.0 0.01 0.23 0.01 87 1012.4
20260505075007 43 360 5.0 11.0 0.01 0.23 0.01 87 1012.4
20260505074510 44 352 4.0 10.0 0.01 0.23 0.01 86 1012.3
20260505074004 44 19 3.0 10.0 0.01 0.23 0.01 86 1012.3
20260505073504 45 348 3.0 15.0 0.00 0.22 0.00 85 1012.3
20260505073014 45 84 6.0 15.0 0.00 0.22 0.00 85 1012.2
20260505072507 46 5 4.0 13.0 0.00 0.22 0.00 89 1012.1
20260505072007 46 338 5.0 10.0 0.00 0.22 0.00 92 1012.0
20260505071511 45 19 2.0 3.0 0.00 0.22 0.00 92 1012.0
20260505071008 45 340 0.0 2.0 0.00 0.22 0.00 92 1012.0
20260505070510 45 277 0.0 2.0 0.00 0.22 0.00 92 1011.8
20260505070014 45 277 0.0 2.0 0.00 0.22 0.00 92 1011.6
20260505065503 45 263 0.0 2.0 0.00 0.22 0.00 91 1011.6
20260505065004 45 263 0.0 2.0 0.00 0.22 0.00 92 1011.5
20260505064513 45 304 0.0 2.0 0.00 0.22 0.00 92 1011.5
20260505064004 45 319 0.0 2.0 0.00 0.22 0.00 92 1011.6
20260505063504 45 360 0.0 2.0 0.00 0.22 0.00 92 1011.5
20260505063012 45 360 0.0 2.0 0.00 0.22 0.00 92 1011.5
20260505062505 45 360 0.0 2.0 0.00 0.22 0.00 92 1011.5
20260505062004 45 360 0.0 2.0 0.00 0.22 0.00 92 1011.5
20260505061518 45 360 0.0 2.0 0.00 0.22 0.00 93 1011.6
20260505061009 45 12 0.0 1.0 0.00 0.22 0.00 93 1011.6
20260505060507 45 38 1.0 2.0 0.00 0.22 0.00 93 1011.6
20260505060014 45 238 0.0 2.0 0.00 0.22 0.00 92 1011.4
20260505055507 45 238 0.0 2.0 0.00 0.22 0.22 92 1011.5
20260505055007 45 238 0.0 2.0 0.00 0.22 0.22 92 1011.5
20260505054514 45 238 0.0 2.0 0.00 0.22 0.22 92 1011.5
20260505054012 45 238 0.0 2.0 0.00 0.22 0.22 92 1011.5
20260505053506 46 238 0.0 2.0 0.00 0.22 0.22 92 1011.3
20260505053015 46 238 0.0 2.0 0.00 0.22 0.22 92 1011.4
20260505052504 46 235 0.0 0.0 0.00 0.22 0.22 92 1011.2
20260505052008 46 235 0.0 2.0 0.00 0.22 0.22 92 1011.2
20260505051524 46 235 0.0 2.0 0.00 0.22 0.22 91 1011.3
20260505051004 46 235 0.0 2.0 0.00 0.22 0.22 91 1011.4
20260505050508 46 235 0.0 2.0 0.00 0.22 0.22 91 1011.4
20260505041526 47 200 0.0 2.0 0.01 0.22 0.22 90 1011.8
20260505041007 47 194 0.0 2.0 0.02 0.22 0.22 91 1011.9
20260505040507 47 209 0.0 2.0 0.03 0.22 0.22 91 1011.9
20260505040016 47 225 0.0 2.0 0.04 0.22 0.22 91 1011.9
20260505035507 47 225 0.0 2.0 0.06 0.22 0.22 90 1011.8
20260505035007 47 240 1.0 2.0 0.09 0.22 0.22 90 1011.7
20260505034513 47 215 0.0 2.0 0.11 0.22 0.22 90 1011.8
20260505034012 47 226 0.0 2.0 0.14 0.22 0.22 90 1011.8
20260505033513 47 231 0.0 2.0 0.15 0.21 0.21 89 1011.9
20260505033017 47 224 0.0 2.0 0.17 0.21 0.21 89 1011.9
20260505032505 48 229 0.0 2.0 0.19 0.21 0.21 89 1012.0
20260505032012 48 234 0.0 2.0 0.20 0.21 0.21 88 1012.0
20260505031512 48 229 0.0 2.0 0.20 0.21 0.21 87 1011.9
20260505031008 48 252 1.0 3.0 0.19 0.20 0.20 87 1011.8
20260505030506 48 261 1.0 8.0 0.18 0.19 0.19 86 1011.9
20260505030018 49 288 2.0 8.0 0.17 0.18 0.18 85 1011.9
20260505025503 49 259 1.0 5.0 0.16 0.16 0.16 86 1011.8
20260505025004 49 221 1.0 8.0 0.13 0.13 0.13 86 1011.7
20260505024515 50 270 2.0 8.0 0.11 0.11 0.11 86 1011.6
20260505024005 50 237 1.0 5.0 0.08 0.08 0.08 85 1011.5
20260505023505 50 276 2.0 5.0 0.06 0.06 0.06 84 1011.4
20260505023011 50 153 0.0 2.0 0.04 0.04 0.04 83 1011.4
20260505022510 50 124 0.0 2.0 0.02 0.02 0.02 81 1011.2
20260505022006 51 123 0.0 0.0 0.01 0.01 0.01 79 1011.0
20260505021503 51 123 0.0 0.0 0.01 0.01 0.01 78 1011.0
20260505021004 51 123 0.0 1.0 0.01 0.01 0.01 77 1010.9
20260505020503 51 123 0.0 2.0 0.01 0.01 0.01 76 1010.8
20260505020006 51 123 0.0 2.0 0.01 0.01 0.01 75 1010.9
20260505015506 51 116 0.0 2.0 0.00 0.00 0.00 76 1011.0
20260505015010 51 115 0.0 2.0 0.00 0.00 0.00 75 1010.9
20260505014519 51 128 0.0 2.0 0.00 0.00 0.00 75 1010.8
20260505014008 51 121 0.0 8.0 0.00 0.00 0.00 72 1010.7
20260505013512 52 87 1.0 10.0 0.00 0.00 0.00 70 1010.6
20260505013016 52 349 2.0 10.0 0.00 0.00 0.00 70 1010.5
20260505012502 53 344 4.0 12.0 0.00 0.00 0.00 67 1010.5
20260505012005 54 24 5.0 12.0 0.00 0.00 0.00 61 1010.6
20260505011514 56 343 4.0 14.0 0.00 0.00 0.00 57 1010.5
20260505011006 57 315 3.0 14.0 0.00 0.00 0.00 53 1010.5
20260505010509 58 55 5.0 14.0 0.00 0.00 0.00 50 1010.5
20260505010020 58 60 2.0 8.0 0.00 0.00 0.00 49 1010.1
20260505005507 58 5 1.0 4.0 0.00 0.00 0.00 48 1010.1
20260505005004 58 341 2.0 5.0 0.00 0.00 0.00 48 1010.0
20260505004505 58 350 1.0 5.0 0.00 0.00 0.00 48 1009.9
20260505004004 58 339 3.0 6.0 0.00 0.00 0.00 48 1009.9
20260505003511 59 333 2.0 6.0 0.00 0.00 0.00 48 1009.9
20260505003017 59 339 3.0 6.0 0.00 0.00 0.00 48 1009.9
20260505002508 59 352 2.0 6.0 0.00 0.00 0.00 48 1009.8
20260505002010 59 318 1.0 6.0 0.00 0.00 0.00 49 1009.9
20260505001522 60 344 2.0 5.0 0.00 0.00 0.00 49 1009.7
20260505001005 60 34 1.0 5.0 0.00 0.00 0.00 50 1009.8
20260505000503 60 360 1.0 3.0 0.00 0.00 0.00 49 1009.6
20260505000025 59 18 1.0 4.0 0.00 0.00 0.00 48 1009.5
20260504235509 59 333 0.0 5.0 0.00 0.00 0.00 49 1009.5
20260504235007 59 38 3.0 5.0 0.00 0.00 0.00 49 1009.6
20260504234522 59 316 2.0 5.0 0.00 0.00 0.00 47 1009.7
20260504234006 59 328 0.0 3.0 0.00 0.00 0.00 49 1009.5
20260504233509 59 309 0.0 3.0 0.00 0.00 0.00 49 1009.5
20260504233006 59 313 0.0 3.0 0.00 0.00 0.00 49 1009.6
20260504232504 59 347 1.0 3.0 0.00 0.00 0.00 48 1009.4
20260504232006 59 333 1.0 2.0 0.00 0.00 0.00 51 1009.4
20260504231525 59 168 0.0 2.0 0.00 0.00 0.00 50 1009.1
20260504231012 59 120 0.0 2.0 0.00 0.00 0.00 48 1009.3
20260504230507 59 59 0.0 2.0 0.00 0.00 0.00 52 1009.4
20260504230022 59 198 0.0 4.0 0.00 0.00 0.00 53 1009.3
20260504225507 60 292 1.0 8.0 0.00 0.00 0.00 49 1009.4
20260504225005 60 235 2.0 8.0 0.00 0.00 0.00 44 1009.6
20260504224509 61 202 2.0 7.0 0.00 0.00 0.00 43 1009.6
20260504224009 61 274 0.0 6.0 0.00 0.00 0.00 41 1009.7
20260504223506 61 316 0.0 6.0 0.00 0.00 0.00 43 1009.7
20260504223018 61 212 1.0 7.0 0.00 0.00 0.00 41 1009.7
20260504222506 61 271 1.0 7.0 0.00 0.00 0.00 42 1009.8
20260504222014 61 280 1.0 5.0 0.00 0.00 0.00 40 1009.7
20260504221524 61 271 1.0 4.0 0.00 0.00 0.00 40 1009.5
20260504221005 62 283 1.0 3.0 0.00 0.00 0.00 40 1009.2
20260504220504 62 265 1.0 3.0 0.00 0.00 0.00 40 1008.9
20260504220019 62 336 0.0 8.0 0.00 0.00 0.00 40 1008.6
20260504215507 62 324 1.0 12.0 0.00 0.00 0.00 39 1008.3
20260504215009 62 9 6.0 12.0 0.00 0.00 0.00 40 1008.4
20260504214524 62 52 2.0 13.0 0.00 0.00 0.00 39 1008.3
20260504214010 62 30 5.0 17.0 0.00 0.00 0.00 40 1008.3
20260504213511 62 11 6.0 17.0 0.00 0.00 0.00 39 1008.3
20260504213010 63 22 6.0 16.0 0.00 0.00 0.00 38 1008.3
20260504212509 63 352 4.0 18.0 0.00 0.00 0.00 36 1008.5
20260504212006 63 34 8.0 18.0 0.00 0.00 0.00 35 1008.6
20260504211516 64 339 4.0 15.0 0.00 0.00 0.00 35 1008.4
20260504211007 64 15 5.0 17.0 0.00 0.00 0.00 34 1008.5
20260504210511 65 34 9.0 17.0 0.00 0.00 0.00 34 1008.4
20260504210027 65 50 7.0 20.0 0.00 0.00 0.00 33 1008.2
20260504205511 65 76 6.0 20.0 0.00 0.00 0.00 31 1008.5
20260504205007 68 5 7.0 18.0 0.00 0.00 0.00 27 1008.5
20260504204511 72 322 3.0 8.0 0.00 0.00 0.00 24 1008.5
20260504204007 71 180 2.0 11.0 0.00 0.00 0.00 26 1007.7
20260504203507 69 139 4.0 11.0 0.00 0.00 0.00 27 1007.6
20260504203031 68 142 4.0 9.0 0.00 0.00 0.00 29 1007.7
20260504202508 68 105 4.0 9.0 0.00 0.00 0.00 29 1007.8
20260504202013 67 150 4.0 12.0 0.00 0.00 0.00 29 1007.8
20260504201528 67 207 3.0 12.0 0.00 0.00 0.00 29 1007.9
20260504201005 68 178 4.0 12.0 0.00 0.00 0.00 29 1008.0
20260504200509 69 150 4.0 12.0 0.00 0.00 0.00 26 1008.0
20260504200018 70 108 3.0 12.0 0.00 0.00 0.00 25 1008.1
20260504195507 71 121 2.0 12.0 0.00 0.00 0.00 23 1008.0
20260504195011 71 282 2.0 11.0 0.00 0.00 0.00 21 1007.8
20260504194539 71 209 2.0 13.0 0.00 0.00 0.00 21 1007.7
20260504194008 72 239 6.0 13.0 0.00 0.00 0.00 20 1007.7
20260504193510 72 238 3.0 10.0 0.00 0.00 0.00 20 1007.7
20260504193016 73 253 5.0 10.0 0.00 0.00 0.00 21 1007.7
20260504192507 72 163 2.0 8.0 0.00 0.00 0.00 22 1007.5
20260504192010 72 275 2.0 8.0 0.00 0.00 0.00 22 1007.5
20260504191519 72 303 3.0 7.0 0.00 0.00 0.00 21 1007.5
20260504191009 72 209 3.0 9.0 0.00 0.00 0.00 21 1007.3
20260504190511 72 203 3.0 9.0 0.00 0.00 0.00 21 1007.4
20260504190029 72 319 3.0 10.0 0.00 0.00 0.00 22 1007.5
20260504185513 71 275 3.0 10.0 0.00 0.00 0.00 22 1007.5
20260504185004 71 250 3.0 11.0 0.00 0.00 0.00 22 1007.5
20260504184518 71 192 2.0 11.0 0.00 0.00 0.00 22 1007.6
20260504184009 71 271 3.0 7.0 0.00 0.00 0.00 21 1007.8
20260504183513 71 275 2.0 13.0 0.00 0.00 0.00 22 1007.9
20260504183025 71 235 3.0 13.0 0.00 0.00 0.00 23 1007.9
20260504182510 71 253 2.0 14.0 0.00 0.00 0.00 22 1008.0
20260504182012 71 250 3.0 14.0 0.00 0.00 0.00 23 1008.2
20260504181525 71 347 4.0 12.0 0.00 0.00 0.00 23 1008.2
20260504181010 70 342 2.0 10.0 0.00 0.00 0.00 24 1008.4
20260504180509 70 294 5.0 12.0 0.00 0.00 0.00 24 1008.6
20260504180021 70 298 3.0 12.0 0.00 0.00 0.00 24 1008.5
20260504175507 69 291 2.0 15.0 0.00 0.00 0.00 25 1008.7
20260504175011 69 215 6.0 15.0 0.00 0.00 0.00 25 1008.7
20260504174526 70 342 5.0 12.0 0.00 0.00 0.00 24 1008.8
20260504174008 70 289 3.0 14.0 0.00 0.00 0.00 25 1008.9
20260504173511 69 277 4.0 14.0 0.00 0.00 0.00 25 1008.9
20260504173018 69 321 5.0 13.0 0.00 0.00 0.00 25 1008.9
20260504172508 69 273 5.0 13.0 0.00 0.00 0.00 25 1009.1
20260504172010 69 309 2.0 11.0 0.00 0.00 0.00 27 1009.2
20260504171521 68 288 3.0 11.0 0.00 0.00 0.00 26 1009.3
20260504171014 68 292 3.0 9.0 0.00 0.00 0.00 27 1009.3
20260504170512 67 352 3.0 9.0 0.00 0.00 0.00 27 1009.4
20260504151002 62 221 0.0 6.0 0.00 0.00 0.00 30 1009.8
20260504150502 62 235 1.0 6.0 0.00 0.00 0.00 29 1009.8
20260504141004 51 281 1.0 4.0 0.00 0.00 0.00 45 1009.8
20260504140502 50 257 1.0 4.0 0.00 0.00 0.00 50 1009.8
20260504130505 44 165 0.0 2.0 0.00 0.00 0.00 57 1009.6